WA1OUI Weather Reports


Display with metric or nautical units.
time (UTC)temp
F
wind
direction
speed
MPH
gust
MPH
rain 1hr
in
rain 24hr
in
rain mn
in
humidity
%
barometer
mb
20260510201734 68 342 1.0 3.0 0.00 0.00 0.00 54 1010.1
20260510201230 68 344 4.0 4.0 0.00 0.00 0.00 63 1010.1
20260510200727 69 6 1.0 3.0 0.00 0.00 0.00 64 1010.0
20260510200225 69 112 4.0 4.0 0.00 0.00 0.00 60 1009.7
20260510195721 70 157 0.0 3.0 0.00 0.00 0.00 61 1009.6
20260510195218 70 33 1.0 3.0 0.00 0.00 0.00 62 1009.6
20260510194717 70 10 2.0 3.0 0.00 0.00 0.00 62 1009.7
20260510194214 70 326 2.0 3.0 0.00 0.00 0.00 61 1009.7
20260510193710 70 59 2.0 4.0 0.00 0.00 0.00 58 1009.8
20260510193210 71 35 1.0 2.0 0.00 0.00 0.00 59 1009.7
20260510192706 71 20 1.0 4.0 0.00 0.00 0.00 59 1009.8
20260510192201 71 90 0.0 3.0 0.00 0.00 0.00 60 1009.7
20260510191657 71 48 0.0 2.0 0.00 0.00 0.00 61 1009.6
20260510191154 70 26 2.0 2.0 0.00 0.00 0.00 61 1009.7
20260510190652 69 351 2.0 2.0 0.00 0.00 0.00 65 1009.7
20260510190149 69 32 0.0 1.0 0.00 0.00 0.00 63 1009.7
20260510185645 69 36 0.0 2.0 0.00 0.00 0.00 62 1009.8
20260510185144 69 340 1.0 2.0 0.00 0.00 0.00 64 1009.8
20260510184640 69 98 2.0 3.0 0.00 0.00 0.00 64 1010.0
20260510184136 69 14 2.0 3.0 0.00 0.00 0.00 65 1010.0
20260510183631 70 125 1.0 4.0 0.00 0.00 0.00 64 1009.9
20260510183127 70 170 0.0 2.0 0.00 0.00 0.00 65 1010.0
20260510182624 69 137 2.0 2.0 0.00 0.00 0.00 65 1010.1
20260510182119 69 354 2.0 4.0 0.00 0.00 0.00 64 1009.9
20260510181617 70 9 2.0 2.0 0.00 0.00 0.00 66 1010.1
20260510181113 70 83 0.0 4.0 0.00 0.00 0.00 62 1009.9
20260510180609 70 94 0.0 3.0 0.00 0.00 0.00 65 1009.9
20260510180107 69 355 3.0 3.0 0.00 0.00 0.00 66 1010.1
20260510175603 69 26 2.0 2.0 0.00 0.00 0.00 65 1010.0
20260510175058 69 30 2.0 2.0 0.00 0.00 0.00 66 1010.2
20260510174557 69 354 0.0 2.0 0.00 0.00 0.00 66 1009.9
20260510174053 69 96 0.0 5.0 0.00 0.00 0.00 65 1010.0
20260510173549 69 354 2.0 3.0 0.00 0.00 0.00 65 1010.0
20260510173046 70 328 0.0 4.0 0.00 0.00 0.00 65 1010.1
20260510172542 70 132 0.0 2.0 0.00 0.00 0.00 63 1010.0
20260510172038 69 344 4.0 4.0 0.00 0.00 0.00 67 1010.0
20260510171535 69 158 0.0 2.0 0.00 0.00 0.00 66 1010.1
20260510171032 68 334 2.0 3.0 0.00 0.00 0.00 70 1010.4
20260510170528 68 344 2.0 3.0 0.00 0.00 0.00 70 1010.2
20260510170025 69 18 2.0 4.0 0.00 0.00 0.00 67 1010.2
20260510165520 69 314 0.0 4.0 0.00 0.00 0.00 69 1010.0
20260510165017 68 29 3.0 5.0 0.00 0.00 0.00 69 1010.2
20260510164514 68 352 2.0 2.0 0.00 0.00 0.00 70 1010.4
20260510164010 68 3 2.0 3.0 0.00 0.00 0.00 70 1010.6
20260510163506 67 7 2.0 4.0 0.00 0.00 0.00 71 1010.4
20260510163001 67 338 2.0 2.0 0.00 0.00 0.00 70 1010.5
20260510162458 68 2 1.0 3.0 0.00 0.00 0.00 69 1010.5
20260510161954 67 19 2.0 3.0 0.00 0.00 0.00 71 1010.5
20260510161450 66 76 0.0 4.0 0.00 0.00 0.00 72 1010.8
20260510160948 66 18 3.0 4.0 0.00 0.00 0.00 75 1010.7
20260510160445 65 16 4.0 4.0 0.00 0.00 0.00 74 1010.7
20260510155942 64 334 3.0 6.0 0.00 0.00 0.00 75 1010.6
20260510155440 64 22 0.0 3.0 0.00 0.00 0.00 74 1010.7
20260510154937 65 187 0.0 4.0 0.00 0.00 0.00 73 1010.8
20260510154433 65 15 4.0 4.0 0.00 0.00 0.00 74 1011.0
20260510153931 65 8 1.0 3.0 0.00 0.00 0.00 75 1011.0
20260510153428 64 28 2.0 3.0 0.00 0.00 0.00 74 1010.9
20260510152925 64 336 4.0 6.0 0.00 0.00 0.00 74 1011.1
20260510152423 64 337 2.0 2.0 0.00 0.00 0.00 74 1011.1
20260510151918 63 348 2.0 4.0 0.00 0.00 0.00 74 1011.1
20260510151416 63 315 6.0 6.0 0.00 0.00 0.00 75 1011.1
20260510150912 63 327 2.0 3.0 0.00 0.00 0.00 76 1011.1
20260510150408 62 23 2.0 3.0 0.00 0.00 0.00 77 1011.2
20260510145904 62 134 0.0 2.0 0.00 0.00 0.00 78 1011.2
20260510145401 61 324 3.0 3.0 0.00 0.00 0.00 79 1011.1
20260510144857 60 23 3.0 4.0 0.00 0.00 0.00 82 1011.0
20260510144354 60 12 3.0 3.0 0.00 0.00 0.00 81 1011.1
20260510143849 59 10 1.0 5.0 0.00 0.00 0.00 85 1011.2
20260510143345 59 342 2.0 3.0 0.00 0.00 0.00 86 1011.1
20260510142842 58 344 2.0 3.0 0.00 0.00 0.00 87 1011.2
20260510142338 58 334 2.0 4.0 0.00 0.00 0.00 85 1011.2
20260510141836 58 314 1.0 3.0 0.00 0.00 0.00 86 1011.3
20260510141333 58 39 2.0 3.0 0.00 0.00 0.00 87 1011.4
20260510140830 58 336 1.0 2.0 0.00 0.00 0.00 87 1011.1
20260510140326 57 3 2.0 5.0 0.00 0.00 0.00 90 1011.4
20260510135825 56 352 2.0 5.0 0.00 0.00 0.00 91 1011.5
20260510135321 56 286 8.0 8.0 0.00 0.00 0.00 92 1011.3
20260510134819 55 354 2.0 4.0 0.00 0.00 0.00 92 1011.2
20260510134316 55 17 0.0 3.0 0.00 0.00 0.00 93 1011.1
20260510133811 55 344 1.0 3.0 0.00 0.00 0.00 95 1011.1
20260510133308 55 334 2.0 3.0 0.00 0.00 0.00 96 1011.2
20260510132803 54 346 3.0 3.0 0.00 0.00 0.00 96 1011.1
20260510132305 54 346 3.0 3.0 0.00 0.00 0.00 96 1011.3
20260510131758 54 356 2.0 3.0 0.00 0.00 0.00 96 1011.2
20260510131256 54 355 3.0 3.0 0.00 0.00 0.00 96 1011.3
20260510130752 54 328 2.0 3.0 0.00 0.00 0.00 96 1011.4
20260510130249 54 344 1.0 2.0 0.00 0.00 0.00 97 1011.1
20260510125745 54 0 2.0 3.0 0.00 0.00 0.00 97 1011.3
20260510125241 54 351 2.0 3.0 0.00 0.00 0.00 97 1011.2
20260510124738 53 341 1.0 2.0 0.00 0.00 0.00 98 1011.2
20260510124236 53 336 2.0 2.0 0.00 0.00 0.00 98 1011.0
20260510123731 53 334 2.0 3.0 0.00 0.00 0.00 98 1011.1
20260510123227 53 348 2.0 2.0 0.00 0.00 0.00 99 1010.9
20260510122724 53 343 2.0 2.0 0.00 0.00 0.00 99 1011.0
20260510122220 53 348 2.0 2.0 0.00 0.00 0.00 99 1010.8
20260510121717 53 339 1.0 2.0 0.00 0.00 0.00 99 1010.8
20260510121214 53 344 2.0 3.0 0.00 0.00 0.00 99 1011.0
20260510120711 53 333 3.0 3.0 0.00 0.00 0.00 99 1010.9
20260510120208 52 318 3.0 3.0 0.00 0.00 0.00 99 1011.0
20260510115703 52 356 2.0 3.0 0.00 0.00 0.00 99 1010.9
20260510115202 52 2 2.0 4.0 0.00 0.00 0.00 99 1010.9
20260510114657 52 350 3.0 4.0 0.00 0.00 0.00 99 1010.8
20260510114154 52 343 2.0 3.0 0.00 0.00 0.00 99 1010.8
20260510113649 52 336 3.0 3.0 0.00 0.00 0.00 99 1010.8
20260510113146 52 342 2.0 2.0 0.00 0.00 0.00 99 1010.6
20260510112643 52 0 2.0 2.0 0.00 0.00 0.00 99 1010.7
20260510112140 52 4 2.0 3.0 0.00 0.00 0.00 99 1010.6
20260510111636 52 334 3.0 3.0 0.00 0.00 0.00 99 1010.5
20260510111132 52 337 2.0 3.0 0.00 0.00 0.00 99 1010.4
20260510110627 51 343 2.0 2.0 0.00 0.00 0.00 99 1010.4
20260510110126 51 348 2.0 2.0 0.00 0.00 0.00 99 1010.5
20260510105621 51 338 2.0 3.0 0.00 0.00 0.00 99 1010.6
20260510105120 51 356 2.0 2.0 0.00 0.00 0.00 99 1010.4
20260510104618 51 348 2.0 3.0 0.00 0.00 0.00 99 1010.3
20260510104114 51 334 2.0 3.0 0.00 0.00 0.00 99 1010.4
20260510103611 51 355 2.0 2.0 0.00 0.00 0.00 99 1010.2
20260510103107 51 350 2.0 2.0 0.00 0.00 0.00 99 1010.0
20260510102603 51 344 2.0 2.0 0.00 0.00 0.00 99 1010.3
20260510102059 51 349 2.0 2.0 0.00 0.00 0.00 99 1010.3
20260510101557 51 338 2.0 3.0 0.00 0.00 0.00 99 1010.3
20260510101055 51 338 3.0 3.0 0.00 0.00 0.00 99 1009.9
20260510100551 51 349 2.0 2.0 0.00 0.00 0.00 99 1010.0
20260510100049 51 347 1.0 2.0 0.00 0.00 0.00 99 1009.8
20260510095544 51 326 3.0 3.0 0.00 0.00 0.00 99 1009.6
20260510095044 51 63 0.0 2.0 0.00 0.00 0.00 99 1009.8
20260510094538 51 2 2.0 2.0 0.00 0.00 0.00 99 1010.3
20260510094034 51 341 2.0 3.0 0.00 0.00 0.00 99 1010.3
20260510093530 51 9 2.0 2.0 0.00 0.00 0.00 99 1009.8
20260510093027 51 8 2.0 2.0 0.00 0.00 0.00 99 1010.0
20260510092524 51 13 1.0 2.0 0.00 0.00 0.00 99 1010.2
20260510092023 51 343 2.0 3.0 0.00 0.00 0.00 99 1010.0
20260510091521 51 330 2.0 2.0 0.00 0.00 0.00 99 1010.0
20260510091016 51 1 2.0 2.0 0.00 0.00 0.00 99 1009.9
20260510090514 51 342 2.0 2.0 0.00 0.00 0.00 99 1010.0
20260510090010 51 354 1.0 3.0 0.00 0.00 0.00 99 1010.1
20260510085510 51 359 0.0 2.0 0.00 0.00 0.00 99 1010.1
20260510085006 51 357 2.0 3.0 0.00 0.00 0.00 99 1010.2
20260510084503 51 357 1.0 2.0 0.00 0.00 0.00 99 1010.5
20260510083959 51 339 2.0 3.0 0.00 0.00 0.00 99 1010.5
20260510083456 51 359 2.0 3.0 0.00 0.00 0.00 99 1010.3
20260510082951 51 341 2.0 2.0 0.00 0.00 0.00 99 1010.2
20260510082449 51 352 2.0 3.0 0.00 0.00 0.00 99 1010.1
20260510081949 51 348 2.0 3.0 0.00 0.00 0.00 99 1010.0
20260510081444 51 344 2.0 2.0 0.00 0.00 0.00 99 1009.9
20260510080941 51 345 2.0 2.0 0.00 0.00 0.00 99 1010.0
20260510080439 51 346 2.0 2.0 0.00 0.00 0.00 99 1010.2
20260510075937 51 334 2.0 3.0 0.00 0.00 0.00 99 1010.1
20260510075435 51 356 2.0 2.0 0.00 0.00 0.00 99 1010.2
20260510074931 51 1 2.0 2.0 0.00 0.00 0.00 99 1009.9
20260510074428 51 349 2.0 3.0 0.00 0.00 0.00 99 1010.0
20260510073925 51 350 2.0 2.0 0.00 0.00 0.00 99 1010.0
20260510073420 51 348 2.0 2.0 0.00 0.00 0.00 99 1009.8
20260510072917 51 353 2.0 2.0 0.00 0.00 0.00 99 1009.8
20260510072414 51 355 2.0 2.0 0.00 0.00 0.00 99 1009.9
20260510071909 52 2 2.0 2.0 0.00 0.00 0.00 99 1009.8
20260510071406 52 347 2.0 2.0 0.00 0.00 0.00 99 1010.0
20260510070904 52 348 2.0 2.0 0.00 0.00 0.00 99 1009.8
20260510070401 52 335 2.0 2.0 0.00 0.00 0.00 99 1009.7
20260510065856 52 342 2.0 2.0 0.00 0.00 0.00 99 1009.6
20260510065353 52 339 2.0 2.0 0.00 0.00 0.00 99 1009.8
20260510064849 52 334 1.0 2.0 0.00 0.00 0.00 99 1009.7
20260510064348 52 341 3.0 3.0 0.00 0.00 0.00 99 1009.8
20260510063843 52 345 2.0 2.0 0.00 0.00 0.00 99 1009.8
20260510063340 52 351 2.0 2.0 0.00 0.00 0.00 99 1009.6
20260510062837 52 337 2.0 2.0 0.00 0.00 0.00 99 1009.7
20260510062332 52 337 2.0 3.0 0.00 0.00 0.00 99 1009.7
20260510061828 52 341 2.0 3.0 0.00 0.00 0.00 99 1009.6
20260510061325 52 341 2.0 2.0 0.00 0.00 0.00 99 1009.6
20260510060821 52 342 2.0 2.0 0.00 0.00 0.00 99 1009.5
20260510060318 52 349 2.0 2.0 0.00 0.00 0.00 99 1009.4
20260510055815 52 339 2.0 3.0 0.00 0.00 0.00 99 1009.5
20260510055313 52 349 1.0 2.0 0.00 0.00 0.00 99 1009.5
20260510054813 51 352 2.0 2.0 0.00 0.00 0.00 99 1009.5
20260510054309 51 345 2.0 2.0 0.00 0.00 0.00 99 1009.6
20260510053810 51 354 2.0 2.0 0.00 0.00 0.00 99 1009.8
20260510053305 52 359 2.0 2.0 0.00 0.00 0.00 99 1009.8
20260510052802 52 3 2.0 2.0 0.00 0.00 0.00 99 1009.6
20260510052258 52 349 2.0 2.0 0.00 0.00 0.00 99 1009.4
20260510051754 52 344 3.0 3.0 0.00 0.00 0.00 99 1009.6
20260510051250 52 339 3.0 3.0 0.00 0.00 0.00 99 1009.7
20260510050747 52 342 2.0 3.0 0.00 0.00 0.00 99 1009.8
20260510050244 52 348 2.0 2.0 0.00 0.00 0.00 99 1009.7
20260510045741 52 342 2.0 2.0 0.00 0.00 0.00 99 1009.7
20260510045238 52 345 2.0 3.0 0.00 0.00 0.00 99 1009.7
20260510044734 52 338 3.0 3.0 0.00 0.00 0.00 99 1009.9
20260510044232 52 350 2.0 2.0 0.00 0.00 0.00 99 1009.6
20260510043727 52 351 3.0 3.0 0.00 0.00 0.00 99 1009.6
20260510043225 52 334 3.0 3.0 0.00 0.00 0.00 99 1009.8
20260510042722 52 353 2.0 2.0 0.00 0.00 0.00 99 1009.7
20260510042217 52 350 2.0 3.0 0.00 0.00 0.00 99 1009.7
20260510041715 52 357 1.0 3.0 0.00 0.00 0.00 99 1009.7
20260510041212 52 334 2.0 3.0 0.00 0.00 0.00 99 1009.6
20260510040708 52 355 1.0 2.0 0.00 0.00 0.00 99 1009.6
20260510040206 52 351 0.0 2.0 0.00 0.00 0.00 99 1009.7
20260510035701 52 348 1.0 3.0 0.00 0.72 0.72 99 1009.7
20260510035157 52 359 2.0 2.0 0.00 0.72 0.72 99 1009.6
20260510034653 52 7 0.0 2.0 0.00 0.72 0.72 99 1009.8
20260510034150 52 340 2.0 3.0 0.00 0.72 0.72 99 1009.7
20260510033646 52 352 0.0 3.0 0.00 0.72 0.72 99 1009.8
20260510033144 52 331 2.0 3.0 0.00 0.72 0.72 99 1009.8
20260510032641 52 341 3.0 3.0 0.00 0.72 0.72 99 1009.7
20260510032136 52 344 2.0 3.0 0.00 0.72 0.72 99 1009.7
20260510031631 53 338 3.0 3.0 0.00 0.72 0.72 99 1009.7
20260510031129 52 341 2.0 2.0 0.00 0.72 0.72 99 1009.7
20260510030622 53 341 2.0 2.0 0.00 0.72 0.72 99 1009.8
20260510030121 53 338 2.0 4.0 0.00 0.72 0.72 99 1009.8
20260510025617 53 342 2.0 2.0 0.00 0.72 0.72 99 1009.6
20260510025115 53 344 3.0 3.0 0.00 0.72 0.72 99 1009.6
20260510024612 53 335 2.0 3.0 0.00 0.72 0.72 99 1009.4
20260510024108 53 347 2.0 2.0 0.00 0.72 0.72 99 1009.3
20260510023604 52 342 2.0 3.0 0.00 0.72 0.72 99 1009.5
20260510023102 52 357 2.0 2.0 0.00 0.72 0.72 99 1009.4
20260510022601 52 349 2.0 3.0 0.00 0.72 0.72 99 1009.5
20260510022056 52 351 2.0 4.0 0.00 0.72 0.72 99 1009.7
20260510021552 52 342 2.0 3.0 0.00 0.72 0.72 99 1009.5
20260510021050 52 349 2.0 3.0 0.00 0.72 0.72 99 1009.7
20260510020550 52 333 2.0 3.0 0.00 0.72 0.72 99 1009.8
20260510020046 52 338 2.0 3.0 0.00 0.72 0.72 99 1009.7
20260510015542 52 341 3.0 3.0 0.00 0.72 0.72 99 1009.7
20260510015038 52 349 2.0 3.0 0.00 0.72 0.72 99 1009.8
20260510014535 52 356 2.0 3.0 0.00 0.72 0.72 99 1010.0
20260510014032 52 343 2.0 3.0 0.00 0.72 0.72 99 1009.8
20260510013532 52 340 2.0 3.0 0.00 0.72 0.72 99 1009.7
20260510013028 52 337 2.0 3.0 0.00 0.72 0.72 99 1009.7
20260510012522 52 345 2.0 2.0 0.00 0.72 0.72 99 1009.7
20260510012019 52 336 2.0 3.0 0.00 0.72 0.72 99 1009.7
20260510011518 52 341 2.0 3.0 0.00 0.72 0.72 99 1009.7
20260510011014 52 333 3.0 4.0 0.00 0.72 0.72 99 1009.4
20260510010511 52 351 2.0 3.0 0.00 0.72 0.72 99 1009.2
20260510010008 52 343 2.0 2.0 0.00 0.72 0.72 99 1009.5
20260510005504 52 350 2.0 3.0 0.00 0.72 0.72 99 1009.3
20260510005002 52 355 2.0 3.0 0.00 0.72 0.72 99 1009.5
20260510004459 52 348 3.0 3.0 0.00 0.72 0.72 99 1009.2
20260510003957 52 334 2.0 3.0 0.00 0.72 0.72 99 1009.0
20260510003453 52 334 3.0 3.0 0.00 0.72 0.72 99 1009.3
20260510002948 52 344 3.0 4.0 0.00 0.72 0.72 99 1008.9
20260510002444 52 351 2.0 3.0 0.00 0.72 0.72 99 1008.9
20260510001941 52 3 2.0 3.0 0.00 0.72 0.72 99 1009.0
20260510001438 52 343 3.0 3.0 0.00 0.72 0.72 99 1009.0
20260510000936 52 343 3.0 3.0 0.00 0.72 0.72 99 1008.8
20260510000433 52 351 2.0 3.0 0.00 0.72 0.72 99 1008.8
20260509235929 52 336 2.0 4.0 0.00 0.72 0.72 99 1008.8
20260509235426 52 340 2.0 3.0 0.00 0.72 0.72 99 1008.8
20260509234922 52 354 2.0 3.0 0.00 0.72 0.72 99 1008.9
20260509234419 52 4 2.0 3.0 0.00 0.72 0.72 99 1009.0
20260509233917 52 350 2.0 3.0 0.00 0.72 0.72 99 1008.8
20260509233414 52 340 3.0 3.0 0.00 0.72 0.72 99 1008.9
20260509232910 52 348 2.0 3.0 0.00 0.72 0.72 99 1009.0
20260509232408 52 340 3.0 3.0 0.00 0.72 0.72 99 1009.3
20260509231904 52 352 3.0 3.0 0.02 0.72 0.72 98 1009.1
20260509231400 52 340 3.0 3.0 0.02 0.72 0.72 98 1009.3
20260509230859 52 345 2.0 3.0 0.00 0.72 0.72 98 1009.3
20260509230355 52 331 2.0 3.0 0.00 0.72 0.72 98 1009.4
20260509225851 52 1 2.0 3.0 0.00 0.72 0.72 98 1009.4
20260509225348 52 335 3.0 3.0 0.00 0.72 0.72 98 1009.5
20260509224843 52 332 2.0 3.0 0.02 0.72 0.72 98 1009.5
20260509224340 52 357 2.0 2.0 0.05 0.72 0.72 98 1009.3
20260509223837 52 342 3.0 3.0 0.02 0.71 0.71 98 1009.6
20260509223333 52 339 2.0 3.0 0.05 0.71 0.71 98 1009.5
20260509222831 52 327 2.0 3.0 0.09 0.71 0.71 98 1009.5
20260509222326 51 338 2.0 3.0 0.09 0.70 0.70 98 1009.6
20260509221821 51 1 2.0 3.0 0.09 0.69 0.69 98 1009.7
20260509221319 51 345 2.0 2.0 0.05 0.68 0.68 98 1009.7
20260509220814 51 336 2.0 2.0 0.07 0.68 0.68 98 1009.8
20260509220310 51 354 2.0 3.0 0.07 0.67 0.67 98 1009.8
20260509215806 51 341 2.0 2.0 0.05 0.67 0.67 98 1010.0
20260509215305 51 339 2.0 2.0 0.02 0.66 0.66 98 1009.9
20260509214759 51 346 2.0 2.0 0.02 0.66 0.66 98 1009.9
20260509214257 51 355 2.0 2.0 0.02 0.66 0.66 98 1009.7
20260509213754 51 346 3.0 3.0 0.02 0.65 0.65 98 1009.6
20260509213249 51 336 2.0 3.0 0.05 0.65 0.65 98 1009.8
20260509212746 51 353 2.0 3.0 0.02 0.65 0.65 98 1009.7
20260509212244 51 344 2.0 3.0 0.02 0.65 0.65 98 1009.8
20260509211745 51 331 2.0 3.0 0.05 0.65 0.65 98 1009.6
20260509211241 51 315 3.0 3.0 0.05 0.64 0.64 98 1009.7
20260509210738 51 342 2.0 3.0 0.05 0.64 0.64 98 1009.7
20260509210236 51 343 1.0 2.0 0.12 0.63 0.63 98 1009.6
20260509205735 51 357 2.0 3.0 0.09 0.63 0.63 97 1009.5
20260509205230 51 356 2.0 3.0 0.07 0.61 0.61 97 1010.0
20260509204726 51 327 3.0 4.0 0.12 0.61 0.61 97 1009.6
20260509204223 51 0 3.0 4.0 0.14 0.60 0.60 97 1009.9
20260509203718 51 12 2.0 3.0 0.26 0.59 0.59 97 1010.1
20260509203217 51 19 2.0 4.0 0.24 0.57 0.57 97 1010.1
20260509202712 51 331 3.0 3.0 0.12 0.55 0.55 97 1010.1
20260509202208 51 337 2.0 3.0 0.09 0.54 0.54 97 1009.9